軌道要素
Epoch 2020 Apr. 21.0 TT = JDT 2458960.5
T 2020 May 5.69695 TT Rudenko
q 6.5813497 (2000.0) P Q
z +0.0012038 Peri. 319.18741 -0.92229507 -0.22386205
+/-0.0000010 Node 212.39725 +0.19036153 -0.97255560
e 0.9920772 Incl. 36.01645 -0.33635443 +0.06341434
From 444 observations 2019 Jan. 14-2020 July 2, mean residual 0".4.
|